THOR 1 (MARCOPOLO 2)

Satellite information

Favourite Embed

Satellite Type and Status

PAYLOADIN ORBIT

Key statistics

Satellite THOR 1 (MARCOPOLO 2) at a glance.

Uptime

12743

Days in orbit

Revolutions

≈ 1.0

Per day

Orbit

OTHER

Other

Inclination

14.4

Latest

Satellite identification and parameters

Extended collection of information and parameters for THOR 1 (MARCOPOLO 2).

Object identification

Identified? True

Debris? False

Object name: THOR 1 (MARCOPOLO 2)

International designator: 1990-074A

Object number (NORAD): 20762

Object ID (CCSDS): 20762

Country: NORWAY (NOR)

Current information (Y/N): Y

RCS size: LARGE

Orbital parameters

Period: 1451.528 minutes

Inclination: 14.3926 deg

SMA: 42466.244 km

Apoapsis: 36102.929 km

Periapsis: 36073.288 km

RAAN: 9.1935 deg

Eccentricy: 0.000349

Argument of periapsis: 201.8288 deg

Mean anomaly: 152.1274 deg

Mean motion: 0.99205783 rev/day

Mean motion (dot): 0.0000005 rev/day2

B* drag term: 0.0 1/REarth

Two-line elements (TLE)

Creation date: July 7, 2025, 6:34 p.m.

Reference frame: TEME

Reference center: EARTH

Epoch: July 7, 2025, 12:58 p.m. UTC

TLE line 0: 0 THOR 1 (MARCOPOLO 2)

TLE line 1: 1 20762U 90074A 25188.54039112 .00000050 00000-0 00000-0 0 9991

TLE line 2: 2 20762 14.3926 9.1935 0003490 201.8288 152.1274 0.99205783 42782

Live tracking on map

Real-time ground track for satellite THOR 1 (MARCOPOLO 2).

In-orbit conjunctions

There are no conjunctions computed for THOR 1 (MARCOPOLO 2), at the moment. Check back to stay up to date, as we update our databases every day.

Go to all conjunctions

Associated space launch

British geostationary communications satellite

THOR 1 (MARCOPOLO 2) was lifted into orbit during the mission ‘Delta 6925 | Marcopolo 2’, on board a Delta 6925 space rocket.

The launch took place on Aug. 18, 1990, 12:42 a.m. from Space Launch Complex 17B.

For more information about the launch, click the button.

Launch to space Delta 6925 | Marcopolo 2
Delta 6925 | Marcopolo 2

Agency: N/A

Status: Launch Successful

Launch date: Aug. 18, 1990, 12:42 a.m. UTC

Rocket: Delta 6925

Launch pad: Space Launch Complex 17B

Location: Cape Canaveral SFS, FL, USA

...

Latest news about this satellite

There are no fresh news available about this satellite. Check back as we update our databases every day.


Newsletter sign-up

Weekly statistics, charts and insights to help you stay on top of the space industry.